Tracking 35036 objects as of 15-Aug-2026
HD Live streaming from Space Station
objects crossing your sky now

QIANFAN-206

Track QIANFAN-206 now!
10-day predictions
QIANFAN-206 is classified as:


NORAD ID: 69805
Int'l Code: 2026-153F
Launch date: July 4, 2026
Source: People's Republic of China (PRC)
Launch site: Taiyaun Space Center, China (TSC)
Your satellite tracking list
Your tracking list is empty




NASA's NSSDC Master Catalog

Two Line Element Set (TLE):
1 69805U 26153F   26227.63920422  .00000237  00000-0  11286-3 0  9995
2 69805  88.9960 355.4661 0010073  91.1568 269.0774 14.15950854  6004
Source of the keplerian elements: AFSPC